Weather in Oktyabr'skiy

Russia / Khabarovsk Krai     49°03′22″N   140°14′54″E
temp.,
°C
wind,
m/s
gust,
m/s
humid.,
%
clouds,
%
prec.,
mm/h
press.,
hPa
HPBL,
m
29 july, thu
thu2901:00+18ne119728 0.0 100241
04:00+17e119860 0.0 100221
07:00+20se118860 0.0 100289
10:00+27se226510 0.0 1001370
13:00+29se335659 0.0 1000442
16:00+28sse355689 0.0 998332
19:00+20n3591100 0.3 1000203
22:00+19nw119789 0.8 100011
30 july, fri
fri3001:00+19se1198100 1.1 99918
04:00+20wsw1199100 4.6 100017
07:00+20s119898 0.4 99943
10:00+21ese1197100 1.0 100049
13:00+22ne1293100 0.5 1001250
16:00+19ne24100100 6.9 1001129
19:00+16ne3899100 3.5 1003247
22:00+15nne41099100 5.0 1006387
31 july, sat
sat3101:00+15nne3998100 0.0 1006389
04:00+14ne3897100 0.0 1007356
07:00+14ne3797100 0.1 1008305
10:00+15ne3493100 0.1 1010321
13:00+16ne3486100 0.0 1011366
16:00+14ne3697100 0.6 1011342
19:00+14ne3697100 0.3 1012407
22:00+14ne1597100 0.4 1012332
1 august, sun
sun101:00+14ene1397100 0.1 1012145
04:00+14ne1298100 0.2 1012127
07:00+14ene1198100 0.0 1013111
10:00+15ese1295100 0.1 1013336
13:00+16sse248899 0.1 1013555
16:00+19sse357375 0.1 1013613
19:00+17sse258060 0.0 1013476
22:00+14sw2696100 0.0 1015162
2 august, mon
mon201:00+14ssw2595100 0.0 1014175
04:00+13ssw2397100 0.0 101478
07:00+15s2492100 0.0 1014289
10:00+16sse3587100 0.0 1014519
13:00+17sse3482100 0.0 1013561
16:00+18sse248076 0.0 1012415
19:00+18sse238622 0.0 1012344
22:00+15s119845 0.0 101331